Location: Bergfeld
(52.0500°N, 11.7833°E)
Time: 09:12:05
(UTC+00:00)

Cosmos 1869 - Pass Details

Date: 17 February 2020
Orbit: 525 x 558 km, 82.5° (Epoch: 03 April)

Event Time Altitude Azimuth Distance (km) Brightness Sun altitude
Rises 04:21:15 0° 173° (S) 2,714 6.9 -19.7°
Reaches altitude 10° 04:23:28 10° 167° (SSE) 1,820 6.1 -19.3°
Maximum altitude 04:27:18 46° 94° (E) 747 4.4 -18.7°
Drops below altitude 10° 04:31:07 10° 22° (NNE) 1,816 6.3 -18.1°
Sets 04:33:19 0° 16° (NNE) 2,707 7.1 -17.8°
